2025-180E

Last updated on Sat Sep 13 2025 00:02:07 GMT+0000 (Coordinated Universal Time)

1 65263U 25180E 25254.38691161 .00002869 00000+0 16930-3 0 9997 2 65263 97.4939 20.5087 0013510 192.3044 167.7859 15.12261620 3484
UTC large
Height (km)
Speed (km/s)
/
Latitude / Longitude
Inclination (degrees)
Orbital Period (minutes)
Azimuth
Elevation
Range (km)
Doppler Factor

Next 0 passes for location: London (51.5072 / 0.1276)

Sorry there are no passes over London.